TimeCDT,TemperatureF,Dew PointF,Humidity,Sea Level PressureIn,VisibilityMPH,Wind Direction,Wind SpeedMPH,Gust SpeedMPH,PrecipitationIn,Events,Conditions,WindDirDegrees,DateUTC
12:04 AM,51.8,51.8,100,29.96,2.0,Calm,Calm,-,N/A,,Clear,0,2013-11-02 05:04:00
12:18 AM,51.8,51.8,100,29.96,1.8,Calm,Calm,-,N/A,,Clear,0,2013-11-02 05:18:00
12:22 AM,51.8,51.8,100,29.96,3.0,Calm,Calm,-,N/A,,Clear,0,2013-11-02 05:22:00
12:28 AM,51.8,51.8,100,29.96,1.8,Calm,Calm,-,N/A,,Clear,0,2013-11-02 05:28:00
12:43 AM,53.6,51.8,94,29.96,3.0,Calm,Calm,-,N/A,,Clear,0,2013-11-02 05:43:00
12:53 AM,53.1,52.0,96,29.96,8.0,Calm,Calm,-,N/A,,Clear,0,2013-11-02 05:53:00
1:53 AM,55.9,53.1,90,29.96,10.0,Calm,Calm,-,N/A,,Clear,0,2013-11-02 06:53:00
2:53 AM,59.0,52.0,78,29.98,10.0,NW,8.1,-,N/A,,Clear,320,2013-11-02 07:53:00
3:53 AM,57.9,50.0,75,29.99,10.0,NNW,9.2,-,N/A,,Mostly Cloudy,330,2013-11-02 08:53:00
4:53 AM,55.9,48.0,75,30.01,10.0,NNW,6.9,-,N/A,,Partly Cloudy,340,2013-11-02 09:53:00
5:53 AM,55.0,46.9,74,30.05,10.0,North,6.9,-,N/A,,Partly Cloudy,350,2013-11-02 10:53:00
6:53 AM,53.1,46.0,77,30.08,10.0,NNW,6.9,-,N/A,,Clear,340,2013-11-02 11:53:00
7:53 AM,50.0,46.0,86,30.10,10.0,NNW,4.6,-,N/A,,Clear,330,2013-11-02 12:53:00
8:53 AM,55.0,46.9,74,30.12,10.0,NNW,8.1,-,N/A,,Clear,330,2013-11-02 13:53:00
9:53 AM,61.0,46.9,60,30.14,10.0,NW,6.9,-,N/A,,Clear,320,2013-11-02 14:53:00
10:53 AM,64.0,45.0,50,30.15,10.0,NNW,12.7,-,N/A,,Clear,340,2013-11-02 15:53:00
11:53 AM,66.0,41.0,40,30.15,10.0,NNW,16.1,21.9,N/A,,Clear,330,2013-11-02 16:53:00
12:53 PM,68.0,41.0,37,30.14,10.0,NNW,10.4,-,N/A,,Clear,330,2013-11-02 17:53:00
1:53 PM,66.9,41.0,39,30.12,10.0,North,9.2,-,N/A,,Clear,360,2013-11-02 18:53:00
2:53 PM,68.0,39.9,36,30.11,10.0,NNW,16.1,20.7,N/A,,Clear,340,2013-11-02 19:53:00
3:53 PM,68.0,41.0,37,30.10,10.0,NNW,12.7,-,N/A,,Clear,340,2013-11-02 20:53:00
4:53 PM,66.0,41.0,40,30.12,10.0,NNW,11.5,-,N/A,,Clear,330,2013-11-02 21:53:00
5:53 PM,62.1,41.0,46,30.14,10.0,North,8.1,-,N/A,,Clear,350,2013-11-02 22:53:00
6:53 PM,55.9,43.0,62,30.16,10.0,North,4.6,-,N/A,,Partly Cloudy,360,2013-11-02 23:53:00
7:53 PM,53.1,43.0,69,30.19,10.0,NNE,4.6,-,N/A,,Partly Cloudy,20,2013-11-03 00:53:00
8:53 PM,51.1,44.1,77,30.21,10.0,NNE,4.6,-,N/A,,Clear,20,2013-11-03 01:53:00
9:53 PM,48.0,44.1,86,30.23,10.0,Calm,Calm,-,N/A,,Clear,0,2013-11-03 02:53:00
10:53 PM,46.9,44.1,90,30.24,10.0,Calm,Calm,-,N/A,,Clear,0,2013-11-03 03:53:00
11:53 PM,44.1,43.0,96,30.24,10.0,ENE,3.5,-,N/A,,Clear,60,2013-11-03 04:53:00